sat.trackr.live / text

‹ back to catalog

STARLINK-5045

NORAD 53900 · 2022-119Q

PAYLOAD ACTIVE UNKNOWN

§ Identity

Operator
Country
US
Launch date
2022-09-24
Launch site
AFETR
Launch vehicle
Mass (kg)
RCS (m²)

Purposes: comms

External: N2YO · Heavens-Above · Gunter

§ Orbital elements

Epoch: 2026-05-24T23:00:00.752256Z

Period
95.44 min
Inclination
53.2164°
Eccentricity
0.0001445
Mean motion
15.08838203 rev/d
Perigee alt
538.7 km
Apogee alt
540.7 km
Semi-major
6,917.9 km
B*
2.2770e-5
RAAN
341.3767°
Arg perigee
89.7703°
Mean anomaly
270.3455°
Rev number
20,320

§ Raw data

STARLINK-50451 53900U 22119Q   26144.95834204  .00000074  00000+0  22770-4 0  99962 53900  53.2164 341.3767 0001445  89.7703 270.3455 15.08838203203200

JSON: /api/v1/satellites/53900 · /tle

For live sub-satellite position, see the globe view (requires WebGL).

§ Visibility from observer

Set your observer location to see the next 7 days of passes ≥ 10°. The values pass through the URL so the page stays shareable.

No JS? Fill the form by hand. The geolocation button needs JavaScript.